Weather History for Kaneohe MCBH, HI

Change the Weather History Date:

Thursday, May 16, 2013

  Actual Average Record
Temperature  
Mean Temperature 78 °F -  
Max Temperature 84 °F 77 °F 84 °F (2008)
Min Temperature 73 °F 69 °F 68 °F (1997)
Cooling Degree Days 14    
Growing Degree Days 28 (Base 50)    
Moisture  
Dew Point 69 °F    
Average Humidity 78    
Maximum Humidity 94    
Minimum Humidity 56    
Precipitation  
Precipitation 0.00 in - - ()
Sea Level Pressure  
Sea Level Pressure 30.11 in    
Wind  
Wind Speed 10 mph (ENE)    
Max Wind Speed 14 mph    
Max Gust Speed 21 mph    
Visibility 9 miles    
Events      
Averages and records for this station are not official NWS values.
T = Trace of Precipitation, MM = Missing Value Source: NWS Daily Summary

Daily Weather History Graph

Daily Weather History Graph

Search for Another Location

Airport:

Trip Planner

Search our weather history database for the weather conditions in past years. The results will help you decide how hot, cold, wet, or windy it might be!

Date:

Astronomy

May. 16, 2013 Rise Set
Actual Time 5:52 AM HST 7:03 PM HST
Civil Twilight 5:28 AM HST 7:27 PM HST
Nautical Twilight 4:59 AM HST 7:55 PM HST
Astronomical Twilight 4:30 AM HST 8:24 PM HST
Moon 11:22 AM HST (5/16) No Moon Set
Length of Visible Light 13h 58m
Length of Day
13h 10m
Waxing Crescent, 38% of the Moon is Illuminated
May 16
Waxing Crescent
May 17
First Quarter
May 24
Full
May 31
Last Quarter
Jun 8
New

Hourly Weather History & Observations

Time (HST) Temp. Heat Index Dew Point Humidity Pressure Visibility Wind Dir Wind Speed Gust Speed Precip Events Conditions
12:37 AM 73.4 °F - 71.6 °F 94% 30.14 in 6.2 mi ENE 9.2 mph - N/A   Mostly Cloudy
12:57 AM 73.4 °F - 71.1 °F 92% 30.12 in 10.0 mi ENE 8.1 mph 16.1 mph N/A   Overcast
1:17 AM 75.2 °F - 71.6 °F 89% 30.13 in 6.2 mi ENE 11.5 mph 20.7 mph N/A   Mostly Cloudy
1:57 AM 74.5 °F - 72.0 °F 92% 30.11 in 10.0 mi ENE 10.4 mph 18.4 mph N/A   Partly Cloudy
2:55 AM 75.2 °F - 69.8 °F 83% 30.10 in 6.2 mi East 10.4 mph 19.6 mph 0.00 in   Overcast
2:57 AM 74.5 °F - 70.0 °F 86% 30.09 in 10.0 mi East 10.4 mph 19.6 mph 0.00 in   Overcast
3:49 AM 73.4 °F - 69.8 °F 88% 30.10 in 6.2 mi East 11.5 mph 20.7 mph N/A   Mostly Cloudy
3:57 AM 73.4 °F - 69.1 °F 86% 30.09 in 10.0 mi East 12.7 mph 20.7 mph N/A   Scattered Clouds
4:41 AM 73.4 °F - 69.8 °F 88% 30.10 in 6.2 mi East 11.5 mph 19.6 mph N/A   Mostly Cloudy
4:57 AM 73.4 °F - 69.1 °F 86% 30.09 in 10.0 mi East 11.5 mph 19.6 mph N/A   Scattered Clouds
5:31 AM - - - N/A% 30.11 in 6.2 mi East 9.2 mph 17.3 mph N/A   Mostly Cloudy
5:57 AM 73.4 °F - 69.1 °F 86% 30.10 in 10.0 mi East 12.7 mph 18.4 mph N/A   Mostly Cloudy
6:57 AM 75.2 °F - 68.0 °F 78% 30.12 in 10.0 mi East 11.5 mph 17.3 mph N/A   Mostly Cloudy
7:09 AM 75.2 °F - 69.8 °F 83% 30.13 in 6.2 mi ENE 10.4 mph 19.6 mph N/A   Mostly Cloudy
7:38 AM 75.2 °F - 69.8 °F 83% 30.14 in 6.2 mi East 11.5 mph 19.6 mph N/A   Mostly Cloudy
7:52 AM 75.2 °F - 69.8 °F 83% 30.14 in 6.2 mi East 9.2 mph 20.7 mph N/A   Mostly Cloudy
7:57 AM 75.2 °F - 69.1 °F 81% 30.13 in 10.0 mi ENE 10.4 mph 20.7 mph N/A   Mostly Cloudy
8:57 AM 78.8 °F - 66.9 °F 67% 30.13 in 10.0 mi ENE 10.4 mph 18.4 mph N/A   Mostly Cloudy
9:00 AM - - - N/A% - - North - - N/A   Unknown
9:57 AM 80.6 °F 83.2 °F 68.0 °F 65% 30.13 in 10.0 mi ENE 9.2 mph - N/A   Mostly Cloudy
10:57 AM 80.6 °F 83.2 °F 68.0 °F 65% 30.13 in 10.0 mi ENE 9.2 mph 17.3 mph N/A   Scattered Clouds
11:57 AM 80.6 °F 83.6 °F 69.1 °F 68% 30.12 in 10.0 mi ENE 11.5 mph 19.6 mph N/A   Scattered Clouds
12:57 PM 82.4 °F 85.8 °F 69.1 °F 64% 30.09 in 10.0 mi ENE 9.2 mph 19.6 mph N/A   Mostly Cloudy
1:57 PM 82.4 °F 86.3 °F 70.0 °F 66% 30.08 in 10.0 mi ENE 11.5 mph 20.7 mph N/A   Partly Cloudy
2:57 PM 84.2 °F 86.8 °F 66.9 °F 56% 30.07 in 10.0 mi ENE 11.5 mph - N/A   Partly Cloudy
3:57 PM 84.2 °F 87.9 °F 69.1 °F 60% 30.07 in 10.0 mi ENE 9.2 mph - N/A   Overcast
4:57 PM 82.4 °F 85.4 °F 68.0 °F 62% 30.07 in 10.0 mi ENE 8.1 mph - N/A   Overcast
5:57 PM 80.6 °F 83.2 °F 68.0 °F 65% 30.07 in 10.0 mi ENE 8.1 mph - N/A   Overcast
6:57 PM 77.0 °F - 66.9 °F 71% 30.09 in 10.0 mi East 8.1 mph 16.1 mph N/A   Overcast
7:57 PM 77.0 °F - 66.9 °F 71% 30.10 in 10.0 mi ENE 9.2 mph - N/A   Overcast
8:57 PM 75.2 °F - 69.1 °F 81% 30.11 in 10.0 mi ENE 10.4 mph 17.3 mph N/A   Overcast
9:57 PM 75.2 °F - 69.1 °F 81% 30.12 in 10.0 mi East 9.2 mph 19.6 mph N/A   Overcast
10:57 PM 73.4 °F - 69.1 °F 86% 30.12 in 10.0 mi ENE 10.4 mph 17.3 mph N/A   Overcast
11:57 PM 73.4 °F - 69.1 °F 86% 30.10 in 10.0 mi East 13.8 mph 20.7 mph N/A   Overcast